Content
SEND FEEDBACK

Daily
Averages
Monthly
Summary
Canada

VANCOUVER - CITY HALL, BRITISH COLUMBIA


Home > North America > Canada > British Columbia
Elevation: 283 feet     Latitude: 49 17N     Longitude: 123 07W

WEATHER
 
SELECT A DAY
Number of Records: 170,074;   Date Range: 4/23/95 - 8/26/14
 
SHARE

PRINT THIS DATA

[ ← Previous Day ]
WEATHER ALMANAC - FEBRUARY 25, 2013
[ Next Day → ]
[ °C ]   °F
Weather ElementAverageHighLow
Temperature40.6 °F48.4 °F (4:00 pm)34.5 °F (11:00 pm)
Dewpoint33.4 °F39 °F (10:00 am)27.5 °F (5:00 pm)
Humidity76.1 %94 % (8:00 am)36 % (4:00 pm)
Barometer29.94 in30.22 in (11:00 pm)29.75 in (7:00 am)
Wind Speed3.9 mph6.9 mph (1:00 am)
Weather ElementAverage
Wind DirectionSSW (204.1 °)

Weather ElementTotal
Precipitation0.40 in
Heating Degree Days23.6 (Base 65)
Averaged from 27 records on February 25, 2013
WEATHER CONDITIONS BREAKOUT
WIND DIRECTION BREAKOUT
WEATHER BY HOUR - FEBRUARY 25, 2013
[ °C ]   °F
Local TimeTemperatureDewpointHumidityBarometerVisibilityWind DirectionWind SpeedGust SpeedPrecipitationEventsConditions
1:00 AM39.0 °F36.9 °F92 %29.83 inENE (70°)6.9 mph0.20 in
2:00 AM39.2 °F37.2 °F93 %29.82 inEast (80°)4.6 mph0.16 in
3:00 AM39.4 °F37.2 °F92 %29.80 inEast (80°)5.8 mph
4:00 AM39.0 °F37.0 °F91 %29.78 inEast (80°)4.6 mph
4:00 AM39.2 °F37.2 °F93 %29.78 inEast (80°)4.6 mph
5:00 AM39.7 °F37.6 °F92 %29.78 inEast (80°)6.9 mph
6:00 AM39.9 °F37.2 °F90 %29.76 inEast (80°)4.6 mph
7:00 AM39.7 °F36.9 °F89 %29.75 inEast (90°)2.3 mph
8:00 AM39.0 °F37.4 °F94 %29.76 inWest (260°)1.2 mph0.02 in
9:00 AM39.9 °F38.1 °F93 %29.78 inWNW (300°)3.5 mph0.02 in
10:00 AM42.0 °F39.0 °F83 %29.81 inWest (280°)3.5 mph
10:00 AM42.1 °F38.7 °F88 %29.81 inWest (280°)3.5 mph
11:00 AM42.3 °F36.0 °F78 %29.86 inWNW (290°)4.6 mph
12:00 PM43.5 °F31.3 °F62 %29.91 inWNW (300°)5.8 mph
1:00 PM44.2 °F30.9 °F60 %29.94 inWest (270°)5.8 mph
2:00 PM45.5 °F31.1 °F57 %29.97 inWest (260°)3.5 mph
3:00 PM45.0 °F29.1 °F54 %30.00 inWNW (290°)5.8 mph
4:00 PM48.0 °F30.0 °F36 %30.02 inWest (270°)2.3 mph
4:00 PM48.4 °F29.7 °F48 %30.02 inWest (270°)2.3 mph
5:00 PM43.9 °F27.5 °F53 %30.05 inWest (280°)2.3 mph
6:00 PM40.8 °F28.6 °F62 %30.07 inENE (70°)1.2 mph
7:00 PM38.1 °F29.8 °F72 %30.11 inNorth (360°)3.5 mph
8:00 PM37.2 °F30.0 °F75 %30.14 inNorth (360°)3.5 mph
9:00 PM37.4 °F28.8 °F71 %30.17 inNorth (350°)3.5 mph
10:00 PM35.0 °F30.0 °F74 %30.19 inNorth3.5 mph
10:00 PM35.4 °F29.8 °F80 %30.19 inNorth (360°)3.5 mph
11:00 PM34.5 °F29.8 °F83 %30.22 inNNE (20°)2.3 mph
Hourly data recorded from CWWA, located miles away from Vancouver - City Hall, British Columbia







STORIES FROM OUR PARTNERS